Location: ?
(35.4554°N, 139.3092°E)
Time: 22:11:25
(UTC+00:00)

SL-16 R/B - Pass Details

Date: 21 April 2021
Orbit: 985 x 1006 km, 99.5° (Epoch: 10 May)

Event Time Altitude Azimuth Distance (km) Brightness Sun altitude
Exits shadow 15:19:56 21° 57° (ENE) 2,073 4.5 -41.6°
Drops below altitude 10° 15:24:00 10° 16° (NNE) 2,786 5.5 -41.4°
Sets 15:27:04 0° 2° (N) 3,741 6.4 -41.2°
